Regional Weather Roundup
Issued by NWS

Home | Current Version | Previous Version | Text Only | Print | Product List | Glossary Off
Versions: 1 2 3 4 5 6 7 8 9 10 11 12 13 14 15 16 17 18 19 20 21 22 23 24 25 26 27 28 29 30 31 32 33 34 35 36 37 38 39 40 41 42 43 44 45 46 47 48 49 50

000
ASUS43 KMPX 230910
RWRMN
WEATHER ROUNDUP FOR MINNESOTA
NATIONAL WEATHER SERVICE TWIN CITIES/CHANHASSEN MN
400 AM CDT WED JUL 23 2014


NOTE: "FAIR" INDICATES FEW OR NO CLOUDS BELOW 12,000 FEET WITH NO
SIGNIFICANT WEATHER AND/OR OBSTRUCTIONS TO VISIBILITY. N/A MEANS
CURRENT SKY AND/OR WEATHER CONDITIONS ARE NOT AVAILABLE.

MNZ060>063-068>070-231000-
   Twin Cities Metro

CITY           SKY/WX    TMP DP  RH WIND       PRES   REMARKS
TWIN CITIES    CLEAR     65  57  75 N6        30.19R
ST PAUL          N/A     64  57  78 W5        30.19R
CRYSTAL        CLEAR     62  55  77 N3        30.19R
BLAINE         CLEAR     63  57  82 CALM      30.20R
LAKEVILLE      CLEAR     63  55  77 N3        30.20R
EDEN PRAIRIE   CLEAR     63  56  78 N6        30.19R
SOUTH ST PAUL  CLEAR     65  56  74 CALM      30.19R
LAKE ELMO      FAIR      61  57  88 NW3       30.20S
$$
MNZ001>005-007-008-013>017-022>024-027-028-231000-
   Northwest Minnesota

CITY           SKY/WX    TMP DP  RH WIND       PRES   REMARKS
BEMIDJI        CLEAR     53  51  94 NW6       30.25S
HALLOCK        PTCLDY    59  55  88 N6        30.28F
ROSEAU         CLEAR     55  50  82 NW5       30.27R
WARROAD        CLEAR     55  52  88 NW7       30.27R
THIEF RVR FALL MOCLDY    59  55  88 CALM      30.28R
CROOKSTON      CLEAR     59  55  88 N5        30.27S
FOSSTON        CLEAR     54  52  94 CALM      30.28R
DETROIT LAKES  CLEAR     59  55  88 NW3       30.27S
MOORHEAD       PTCLDY    59  59 100 CALM      30.26S
PARK RAPIDS    PTCLDY    54  52  93 CALM      30.25S
$$
MNZ006-009>011-018-025>026-231000-
   North Central Minnesota

CITY           SKY/WX    TMP DP  RH WIND       PRES   REMARKS
BAUDETTE       CLEAR     58  55  90 NE3       30.26R
FLAG ISLAND    MOCLDY    63  55  77 E3        30.25S
INTL FALLS     PTCLDY    53  52  96 CALM      30.24R
WASKISH        CLEAR     57  54  88 N5        30.24S
BIG FORK       CLEAR     55  52  88 NW1       30.24S
LONGVILLE      CLEAR     57  55  94 CALM      30.23S
GRAND RAPIDS   CLEAR     55  52  88 NW3       30.22S
CRANE LAKE     CLEAR     50  50 100 CALM      30.24S
ORR            PTCLDY    55  52  88 CALM      30.21S
COOK           CLEAR     52  50  93 CALM      30.22S
$$
MNZ012-019>021-037-231000-
   Northeast Minnesota

CITY           SKY/WX    TMP DP  RH WIND       PRES   REMARKS
DULUTH         PTCLDY    58  52  80 N7        30.20R
ELY            CLEAR     52  48  87 CALM      30.21S
HIBBING        CLEAR     54  51  90 NW5       30.21S
DULUTH HARBOR  CLEAR     61  55  82 NE6       30.19R
TWO HARBORS    MOCLDY    61  52  72 N5        30.17S
SILVER BAY     CLEAR     52  52 100 CALM      30.18R
GRAND MARAIS     N/A     52  50  93 CALM      30.17R
G MARAIS ARPRT PTCLDY    50  46  87 N3        30.21S
$$
MNZ029>031-032-039>041-046>048-054>057-064-231000-
   West Central Minnesota

CITY           SKY/WX    TMP DP  RH WIND       PRES   REMARKS
FERGUS FALLS   CLEAR     63  54  72 N5        30.26R
WHEATON        CLEAR     55  54  94 CALM      30.27S
MORRIS         CLEAR     55  54  94 CALM      30.23F
ALEXANDRIA     CLEAR     62  58  86 N5        30.26S
ELBOW LAKE     FAIR      60  56  87 CALM      30.25S
WADENA         CLEAR     55  54  94 NW5       30.25R
GLENWOOD       CLEAR     59  55  88 N5        30.25S
APPLETON       CLEAR     55  54  94 CALM      30.24R
BENSON         CLEAR     55  54  94 N5        30.24S
ORTONVILLE     CLEAR     59  55  88 NE3       30.24F
MADISON        CLEAR     57  55  94 W6        30.24R
WILLMAR        FAIR      61  54  77 CALM      30.24F
$$
MNZ033>034-036-042>043-049>051-058-059-231000-
   Central Minnesota

CITY           SKY/WX    TMP DP  RH WIND       PRES   REMARKS
ST CLOUD       CLEAR     58  54  86 N3        30.22R
SAUK CENTRE    FAIR      55  54  94 CALM      30.24S
PAYNESVILLE    CLEAR     52  51  94 CALM      30.24S
AITKIN         CLEAR     54  48  82 CALM      30.21S HAZE
PINE RIVER     CLEAR     54  54 100 CALM      30.26F
BRAINERD       CLEAR     55  54  96 CALM      30.23S
STAPLES        CLEAR     55  52  88 CALM      30.24S
LONG PRAIRIE   FAIR      55  52  88 CALM      30.24S
LITTLE FALLS   CLEAR     54  52  94 CALM      30.23S
LITCHFIELD     CLEAR     61  57  88 CALM      30.23S
BUFFALO        CLEAR     62  54  75 NW3       30.23R
MAPLE LAKE     CLEAR     61  56  86 CALM      30.23R
$$
MNZ037-044-045-052-053-231000-
   East Central Minnesota

CITY           SKY/WX    TMP DP  RH WIND       PRES   REMARKS
PRINCETON      CLEAR     55  54  94 CALM      30.22R
MORA           CLEAR     55  52  88 CALM      30.22S
CAMBRIDGE      CLEAR     59  52  77 CALM      30.19R
RUSH CITY      PTCLDY    55  53  92 CALM      30.21R
MOOSE LAKE     CLEAR     59  52  77 N3        30.18S
HINCKLEY       FAIR      59  54  82 CALM      30.20R
CLOQUET        CLEAR     55  52  88 NW6       30.20S
MCGREGOR       CLEAR     54  52  94 CALM      30.22S
$$
MNZ071>073-080-081-089-090-097-098-231000-
   Southwest Minnesota

CITY           SKY/WX    TMP DP  RH WIND       PRES   REMARKS
MONTEVIDEO     CLEAR     57  55  94 NE3       30.24F
GRANITE FALLS  CLEAR     58  55  89 N3        30.24F
CANBY          CLEAR     57  55  93 W3        30.25S
MARSHALL       CLEAR     55  52  88 W3        30.22F
REDWOOD FALLS  CLEAR     61  56  83 N3        30.22S
OLIVIA         CLEAR     57  52  82 CALM      30.22F
PIPESTONE      PTCLDY    61  54  77 CALM      30.24F
WINDOM         CLEAR     57  54  88 N5        30.24R
WORTHINGTON    PTCLDY    57  54  88 N7        30.25S
JACKSON        CLEAR     57  54  88 N3        30.23S
TRACY          CLEAR     60  56  88 NW6       30.24S
SLAYTON        PTCLDY    57  55  91 CALM      30.26S
$$
MNZ065>067-074>077-082>085-091>093-231000-
   South Central Minnesota

CITY           SKY/WX    TMP DP  RH WIND       PRES   REMARKS
MANKATO        CLEAR     61  52  72 NW6       30.21R
NEW ULM        CLEAR     61  57  88 N8        30.21S
ST JAMES       CLEAR     57  54  88 NW5       30.22S
FAIRMONT       CLEAR     57  52  82 N6        30.21S
GLENCOE        CLEAR     62  54  74 NW3       30.21R
FARIBAULT      CLEAR     61  54  77 CALM      30.20R
OWATONNA       CLEAR     57  54  88 CALM      30.20R
WASECA         CLEAR     55  50  82 CALM      30.22R
ALBERT LEA     CLEAR     61  55  82 N5        30.20R
$$
MNZ078>079-086>088-094>096-231000-
   Southeast Minnesota

CITY           SKY/WX    TMP DP  RH WIND       PRES   REMARKS
ROCHESTER      CLEAR     61  56  83 N3        30.20S
RED WING       CLEAR     61  57  88 CALM      30.17S
STANTON        CLEAR     59  55  88 CALM      30.18R
DODGE CENTER   CLEAR     61  55  82 N5        30.20R
WINONA         CLEAR     64  61  88 CALM      30.17S
AUSTIN         CLEAR     61  55  82 N3        30.19R
PRESTON        CLEAR     61  61 100 CALM      30.19S
$$
ABBREVIATIONS USED IN REMARKS
   TC - TEMPERATURES IN CELSIUS
  WCI - WIND CHILL INDEX
   HX - HEAT INDEX
  VSB - VISIBILITY
$$



USA.gov is the U.S. government's official web portal to all federal, state and local government web resources and services.